Location: Caltech
(34.1382°N, 118.1253°W)
Time: 04:30:21
(UTC-07:00)

Uosat F - Visible Passes

Search period start: 26 April 2015 00:00
Search period end: 06 May 2015 00:00
Orbit: 750 x 762 km, 98.7° (Epoch: 25 April)

Date Brightness Start Highest point End Pass type
(mag) Time Alt. Az. Time Alt. Az. Time Alt. Az.
26 Apr 13.8 04:36:44 10° ENE 04:39:25 15° E 04:42:22 10° SE visible
27 Apr 11.6 05:34:21 10° NNE 05:39:18 64° E 05:44:16 10° S visible
28 Apr 13.3 04:55:50 10° NE 04:59:49 24° E 05:03:55 10° SSE visible
30 Apr 12.5 05:15:28 10° NNE 05:20:07 39° E 05:24:49 10° SSE visible
01 May 13.8 04:37:45 10° ENE 04:40:29 15° E 04:43:28 10° SE visible
02 May 11.6 05:35:23 10° NNE 05:40:21 64° E 05:45:20 10° S visible
03 May 13.3 04:56:51 10° NE 05:00:51 25° E 05:04:59 10° SSE visible
05 May 12.5 05:16:30 10° NNE 05:21:10 39° E 05:25:52 10° SSE visible
